Tracking 29892 objects as of 21-Nov-2024
HD Live streaming from Space Station
objects crossing your sky now

STARLINK-5042

Track STARLINK-5042 now!
10-day predictions
STARLINK-5042 is classified as:


NORAD ID: 53899
Int'l Code: 2022-119P
Perigee: 545.9 km
Apogee: 547.9 km
Inclination: 53.2 °
Period: 95.4 minutes
Semi major axis: 6917 km
RCS: Unknown
Launch date: September 24, 2022
Source: United States (US)
Launch site: AIR FORCE EASTERN TEST RANGE (AFETR)
Your satellite tracking list
Your tracking list is empty




NASA's NSSDC Master Catalog

Two Line Element Set (TLE):
1 53899U 22119P   24324.91824468  .00000956  00000-0  78151-4 0  9992
2 53899  53.2170 295.2083 0001444  87.2661 272.8496 15.08843107120015
Source of the keplerian elements: AFSPC